This is the latest recevied weather packets stored in our database for station/object KC5TIL. If no packets are shown the sender has not sent any weather packets the latest 10 day(s).
| Time | Temp. | Humidity | Pressure | Rain* | Wind** | Luminosity | Snow |
|---|---|---|---|---|---|---|---|
| 1778121194 | 16.67° C | 78% | 1018.2 hPa | 0 mm | - | 0 W/m² | - |
| 1778120892 | 16.67° C | 78% | 1018 hPa | 0 mm | - | 0 W/m² | - |
| 1778120587 | 16.67° C | 78% | 1017.8 hPa | 0 mm | - | 0 W/m² | - |
| 1778120284 | 16.67° C | 79% | 1017.5 hPa | 0 mm | - | 0 W/m² | - |
| 1778119979 | 16.67° C | 79% | 1017.5 hPa | 0 mm | - | 0 W/m² | - |
| 1778119678 | 16.11° C | 79% | 1017.4 hPa | 0 mm | - | 0 W/m² | - |
| 1778119374 | 16.11° C | 80% | 1017.4 hPa | 0 mm | - | 0 W/m² | - |
| 1778119071 | 16.11° C | 81% | 1017.1 hPa | 0 mm | - | 0 W/m² | - |
| 1778118769 | 16.11° C | 81% | 1017.2 hPa | 0 mm | - | 0 W/m² | - |
| 1778118465 | 16.11° C | 80% | 1017 hPa | 0 mm | - | 0 W/m² | - |
| 1778118162 | 16.11° C | 81% | 1016.9 hPa | 0 mm | - | 0 W/m² | - |
| 1778117858 | 16.67° C | 81% | 1016.8 hPa | 0 mm | - | 0 W/m² | - |
| 1778117556 | 16.67° C | 80% | 1016.8 hPa | 0 mm | - | 0 W/m² | - |
| 1778117253 | 16.67° C | 80% | 1016.5 hPa | 0 mm | - | 0 W/m² | - |
| 1778116948 | 16.67° C | 80% | 1016.4 hPa | 0 mm | - | 0 W/m² | - |
| 1778116646 | 16.67° C | 80% | 1016.3 hPa | 0 mm | - | 1 W/m² | - |
| 1778116343 | 16.67° C | 81% | 1016.2 hPa | 0 mm | - | 2 W/m² | - |
| 1778116042 | 16.67° C | 82% | 1016.3 hPa | 0 mm | - | 4 W/m² | - |
| 1778115738 | 16.67° C | 83% | 1016.3 hPa | 0 mm | - | 6 W/m² | - |
| 1778115436 | 16.67° C | 87% | 1016.1 hPa | 0 mm | - | 10 W/m² | - |
| 1778115132 | 16.11° C | 87% | 1016.3 hPa | 0 mm | - | 13 W/m² | - |
| 1778114829 | 16.11° C | 87% | 1016 hPa | 0 mm | - | 16 W/m² | - |
| 1778114527 | 16.67° C | 86% | 1016 hPa | 0 mm | - | 23 W/m² | - |
| 1778114223 | 16.67° C | 86% | 1016.1 hPa | 0 mm | - | 32 W/m² | - |
| 1778113918 | 16.67° C | 86% | 1016 hPa | 0 mm | - | 33 W/m² | - |
* Rain latest hour (hover to see other rain measurements)
** Current wind speed in m/s (hover to see current wind gust speed)